Flag for Rwanda Weather past 2 weeks in Butare, Rwanda

Now
72 °F

Broken clouds.


Feels Like: 69 °F
Forecast: 60 / 74 °F
Wind: No wind

Location: Kigali Airport

Current Time: Mar 27, 2015 at 11:14:14 AM

Latest Report: Mar 27, 2015 at 11:00 AM


Visibility: 5 mi

Pressure: 30.15 "Hg

Humidity: 88%

Dew point: 68 °F

Location of ButareLocation

Historic Weather in Butare — Graph

°F

Butare temperature yesterday

Maximum temperature yesterday: 81 °F (at 3:30 PM)
Minimum temperature yesterday: 63 °F (at 3:00 AM)
Average temperature yesterday: 70 °F

Past Weeks' High & Low Weather Summary

 TemperatureHumidityPressure
High90 °F (Mar 16, 2:30 PM)100% (Mar 13, 3:00 AM)30.21 "Hg (Mar 13, 3:00 AM)
Low59 °F (Mar 16, 6:30 AM)22% (Mar 16, 4:00 PM)29.95 "Hg (Mar 13, 4:00 PM)
Average72 °F76%30.07 "Hg
* Reported Mar 12 10:00 AM — Mar 27 10:00 AM, Butare, Weather by CustomWeather, © 2015

Note: Actual official high and low records may vary slightly from our data, if they occured in-between our weather recording intervals... More about our weather records

Advertising

Butare weather history for previous 24 hours

 ConditionsComfort  
Time TempWeatherWind HumidityBarometerVisibility
10:00 AM
Fri, Mar 27
72 °FBroken clouds.No wind88%30.18 "Hg5 mi
9:30 AM70 °FBroken clouds.No wind94%30.21 "Hg5 mi
9:00 AM70 °FBroken clouds.No wind94%30.18 "Hg5 mi
8:30 AM66 °FScattered clouds.3 mph100%30.18 "Hg5 mi
8:00 AM64 °FScattered clouds.No wind100%30.15 "Hg5 mi
7:30 AM64 °FScattered clouds.No wind100%30.15 "Hg3 mi
7:00 AM64 °FFog.No wind100%30.15 "Hg2 mi
6:30 AM63 °FScattered clouds.No wind100%30.12 "Hg4 mi
5:00 AM63 °FPassing clouds.No wind100%30.09 "HgN/A
4:00 AM63 °FPassing clouds.No wind100%30.09 "HgN/A
3:30 AM63 °FPassing clouds.No wind100%30.09 "HgN/A
2:30 AM64 °FPassing clouds.No wind100%30.09 "HgN/A
2:00 AM64 °FPassing clouds.No wind100%30.09 "HgN/A
1:30 AM64 °FPassing clouds.3 mph100%30.07 "HgN/A
1:00 AM64 °FPassing clouds.No wind100%30.09 "HgN/A
12:30 AM66 °FPassing clouds.No wind100%30.09 "HgN/A
12:00 AM66 °FPassing clouds.No wind100%30.12 "HgN/A
10:30 PM
Thu, Mar 26
66 °FPassing clouds.N/A100%30.15 "HgN/A
9:00 PM70 °FPassing clouds.No wind88%30.15 "HgN/A
7:30 PM70 °FPassing clouds.9 mph88%30.09 "HgN/A
7:00 PM72 °FPassing clouds.9 mph78%30.07 "HgN/A
6:30 PM73 °FPassing clouds.5 mph78%30.04 "HgN/A
6:00 PM75 °FScattered clouds.7 mph74%30.04 "HgN/A
5:30 PM77 °FPassing clouds.6 mph69%30.04 "HgN/A
5:00 PM77 °FScattered clouds.9 mph69%30.04 "HgN/A
4:30 PM79 °FScattered clouds.6 mph65%30.04 "HgN/A
4:00 PM79 °FScattered clouds.6 mph61%30.04 "HgN/A
3:30 PM81 °FScattered clouds.5 mph58%30.07 "HgN/A
3:00 PM79 °FScattered clouds.5 mph65%30.07 "HgN/A
2:30 PM77 °FScattered clouds.3 mph69%30.09 "HgN/A
2:00 PM77 °FScattered clouds.No wind74%30.09 "HgN/A
1:30 PM79 °FScattered clouds.No wind70%30.09 "HgN/A
1:00 PM75 °FScattered clouds.No wind78%30.15 "HgN/A
12:30 PM73 °FBroken clouds.5 mph89%30.18 "HgN/A
12:00 PM68 °FBroken clouds.No wind100%30.18 "HgN/A
11:30 AM66 °FLight rain. Partly sunny.7 mph100%30.18 "HgN/A
11:00 AM70 °FRain. Partly sunny.7 mph100%30.21 "Hg3 mi
Weather by CustomWeather, © 2015

See weather overviewHow to use our weather pages